Weather in Kalais

Russia / Tambov Oblast     52°37′15″N   42°37′54″E
temp.,
°C
wind,
m/s
gust,
m/s
humid.,
%
clouds,
%
prec.,
mm/h
press.,
hPa
HPBL,
m
24 january, sun
sun2400:00+1s4898100 0.0 1020251
03:00+1s51099100 0.3 1019330
06:00+1s51098100 0.5 1019309
09:00+1s51099100 0.4 1020304
12:00+1s59100100 0.3 1021354
15:00+1s61199100 0.3 1020409
18:00+1s61299100 0.6 1021384
21:00+1s61296100 2.2 1022384
25 january, mon
mon2500:00+1s61294100 1.1 1022475
03:000s61193100 0.8 1023439
06:00−2sse51194100 0.0 1022352
09:00−2sse61292100 0.0 1022391
12:00−2sse71292100 0.0 1022541
15:00−2sse61193100 0.0 1020572
18:00−2sse61193100 0.0 1020529
21:00−2sse61193100 0.1 1020452
26 january, tue
tue2600:00−1sse61193100 0.0 1019612
03:00−1sse61293100 0.0 1018618
06:00−1se71392100 0.0 1017540
09:00−1sse81592100 0.0 1016650
12:000sse71391100 0.1 1017514
15:000s71398100 0.7 1014606
18:00+1s71296100 0.0 1015417
21:00+1s61196100 0.0 1016544
27 january, wed
wed2700:00+1sse61294100 0.0 1016550
03:00+1sse715100100 0.8 1014477
06:00+1sse81595100 0.3 1013471
09:00+1sse81596100 0.3 1013529
12:00+1sse71497100 0.0 1013539
15:00+1sse61396100 0.0 1012536
18:00+1sse61290100 0.1 1012525
21:00−1sse71391100 0.1 1012541
28 january, thu
thu2800:00−1sse71392100 0.0 1011661
03:00−2se71292100 0.0 1010469
06:00−3sse6129399 0.0 1009453
09:00−3sse6139299 0.0 1009475
12:00−2sse61192100 0.0 1009522
15:00−2se5994100 0.0 1007444
18:00−2sse5894100 0.0 1011427
21:00−2sse4896100 0.1 1010485